QPF
0.00 0.00 0.00 0.01 0.01 0.01 0.00 0.00 0.00 0.00 0.00 0.00 0.00 0.00 0.00 0.00 0.00 0.00 0.00 0.00 0.00 0.00 0.00 0.00 0.01 0.01 0.01 0.02 0.02 0.02 0.02 0.01 0.01 0.01 0.01 0.01 0.01 0.01 0.01 0.01 0.01 0.01 0.01 0.02 0.01 0.01 0.01 0.01 0.00
0.00 0.00 0.01 0.01 0.01 0.00 0.00 0.00 0.00 0.00 0.00 0.00 0.00 0.00 0.00 0.00 0.00 0.00 0.00 0.00 0.00 0.00 0.00 0.00 0.01 0.01 0.01 0.02 0.02 0.02 0.03 0.02 0.02 0.02 0.02 0.01 0.01 0.01 0.01 0.01 0.01 0.01 0.02 0.02 0.01 0.01 0.01 0.00 0.00
0.00 0.00 0.02 0.02 0.01 0.00 0.00 0.00 0.00 0.00 0.00 0.00 0.00 0.00 0.00 0.00 0.00 0.00 0.00 0.00 0.00 0.00 0.00 0.01 0.01 0.01 0.02 0.02 0.02 0.03 0.03 0.03 0.03 0.03 0.02 0.02 0.02 0.02 0.02 0.02 0.02 0.01 0.01 0.01 0.01 0.01 0.01 0.00 0.00
0.00 0.01 0.02 0.02 0.00 0.00 0.00 0.00 0.00 0.00 0.00 0.00 0.00 0.00 0.00 0.00 0.00 0.00 0.00 0.00 0.00 0.00 0.00 0.01 0.01 0.02 0.02 0.02 0.03 0.03 0.03 0.04 0.04 0.04 0.04 0.03 0.03 0.03 0.03 0.02 0.02 0.01 0.01 0.01 0.01 0.01 0.00 0.00 0.00
0.00 0.01 0.01 0.01 0.00 0.00 0.00 0.00 0.00 0.00 0.00 0.00 0.00 0.00 0.00 0.00 0.00 0.00 0.00 0.00 0.00 0.00 0.00 0.01 0.01 0.02 0.03 0.03 0.03 0.04 0.05 0.05 0.06 0.07 0.07 0.06 0.06 0.04 0.03 0.02 0.02 0.01 0.01 0.01 0.01 0.00 0.00 0.00 0.00
0.00 0.01 0.01 0.01 0.00 0.00 0.00 0.00 0.00 0.00 0.00 0.00 0.00 0.00 0.00 0.00 0.00 0.00 0.00 0.00 0.00 0.00 0.01 0.01 0.02 0.03 0.04 0.04 0.05 0.06 0.08 0.09 0.09 0.10 0.10 0.10 0.09 0.08 0.05 0.03 0.02 0.02 0.01 0.01 0.00 0.00 0.00 0.00 0.00
0.00 0.01 0.00 0.00 0.00 0.00 0.00 0.00 0.00 0.00 0.00 0.00 0.00 0.00 0.00 0.00 0.00 0.00 0.00 0.01 0.01 0.01 0.01 0.01 0.02 0.03 0.05 0.06 0.06 0.08 0.11 0.12 0.13 0.12 0.13 0.14 0.13 0.11 0.08 0.05 0.03 0.02 0.01 0.01 0.01 0.00 0.00 0.00 0.00
0.00 0.01 0.00 0.00 0.01 0.01 0.00 0.00 0.00 0.00 0.00 0.00 0.00 0.00 0.00 0.00 0.00 0.00 0.00 0.01 0.02 0.02 0.02 0.02 0.03 0.04 0.05 0.07 0.08 0.10 0.12 0.15 0.17 0.18 0.16 0.17 0.17 0.14 0.12 0.09 0.05 0.04 0.02 0.01 0.01 0.00 0.00 0.00 0.00
0.01 0.01 0.01 0.00 0.00 0.01 0.00 0.00 0.00 0.00 0.00 0.00 0.00 0.00 0.01 0.01 0.02 0.01 0.01 0.02 0.03 0.03 0.03 0.04 0.05 0.06 0.06 0.07 0.10 0.12 0.15 0.17 0.20 0.21 0.20 0.21 0.19 0.15 0.12 0.10 0.08 0.05 0.04 0.02 0.02 0.01 0.00 0.00 0.00
0.01 0.01 0.01 0.00 0.00 0.00 0.01 0.01 0.01 0.01 0.00 0.00 0.00 0.01 0.01 0.02 0.03 0.04 0.03 0.03 0.04 0.03 0.04 0.05 0.06 0.08 0.08 0.10 0.12 0.15 0.17 0.19 0.20 0.20 0.21 0.21 0.20 0.17 0.12 0.10 0.09 0.08 0.05 0.04 0.02 0.01 0.00 0.00 0.00
0.01 0.01 0.00 0.00 0.00 0.01 0.02 0.02 0.01 0.01 0.01 0.00 0.01 0.01 0.02 0.03 0.04 0.05 0.05 0.04 0.05 0.04 0.05 0.07 0.08 0.10 0.10 0.11 0.14 0.16 0.18 0.19 0.20 0.19 0.20 0.20 0.21 0.20 0.16 0.11 0.10 0.10 0.08 0.06 0.04 0.02 0.01 0.00 0.00
0.00 0.00 0.00 0.00 0.01 0.01 0.02 0.02 0.02 0.01 0.02 0.01 0.01 0.02 0.02 0.04 0.05 0.06 0.06 0.05 0.05 0.05 0.05 0.07 0.09 0.10 0.12 0.13 0.14 0.16 0.18 0.18 0.17 0.16 0.19 0.21 0.20 0.19 0.16 0.12 0.09 0.08 0.08 0.07 0.04 0.02 0.01 0.01 0.00
0.00 0.00 0.00 0.00 0.01 0.01 0.02 0.03 0.02 0.01 0.02 0.02 0.02 0.03 0.03 0.03 0.05 0.06 0.07 0.05 0.05 0.05 0.05 0.06 0.09 0.10 0.12 0.14 0.16 0.17 0.18 0.18 0.16 0.15 0.16 0.20 0.21 0.19 0.17 0.13 0.11 0.09 0.08 0.06 0.05 0.02 0.01 0.01 0.01
0.00 0.00 0.00 0.00 0.01 0.01 0.01 0.03 0.03 0.02 0.02 0.02 0.02 0.03 0.04 0.03 0.03 0.05 0.07 0.07 0.05 0.05 0.05 0.05 0.07 0.10 0.11 0.14 0.17 0.17 0.18 0.20 0.19 0.16 0.15 0.18 0.22 0.20 0.19 0.18 0.14 0.12 0.10 0.07 0.05 0.03 0.01 0.01 0.01
0.00 0.01 0.00 0.01 0.01 0.01 0.02 0.04 0.03 0.02 0.02 0.03 0.03 0.03 0.04 0.03 0.03 0.03 0.05 0.07 0.05 0.04 0.04 0.05 0.06 0.10 0.13 0.13 0.16 0.19 0.17 0.20 0.21 0.19 0.18 0.17 0.21 0.23 0.20 0.18 0.16 0.15 0.13 0.11 0.08 0.05 0.02 0.01 0.01
0.01 0.01 0.01 0.02 0.02 0.01 0.02 0.03 0.02 0.02 0.03 0.03 0.03 0.03 0.03 0.03 0.02 0.02 0.03 0.06 0.06 0.05 0.05 0.05 0.07 0.09 0.12 0.14 0.15 0.20 0.21 0.20 0.23 0.24 0.23 0.20 0.20 0.23 0.24 0.20 0.16 0.14 0.16 0.17 0.15 0.11 0.06 0.02 0.00
0.01 0.01 0.02 0.03 0.02 0.02 0.02 0.04 0.04 0.02 0.02 0.02 0.03 0.03 0.03 0.03 0.02 0.02 0.02 0.04 0.06 0.04 0.05 0.05 0.08 0.09 0.12 0.14 0.15 0.17 0.24 0.24 0.23 0.27 0.28 0.25 0.22 0.23 0.26 0.24 0.21 0.17 0.17 0.17 0.16 0.14 0.09 0.04 0.01
0.01 0.01 0.02 0.03 0.03 0.02 0.02 0.04 0.04 0.02 0.02 0.02 0.02 0.03 0.03 0.04 0.02 0.02 0.02 0.04 0.05 0.05 0.05 0.06 0.08 0.08 0.12 0.15 0.19 0.19 0.22 0.27 0.26 0.28 0.27 0.27 0.26 0.24 0.24 0.25 0.24 0.20 0.17 0.15 0.16 0.15 0.11 0.07 0.03
0.01 0.01 0.01 0.01 0.02 0.02 0.02 0.03 0.04 0.03 0.02 0.02 0.02 0.02 0.03 0.03 0.03 0.02 0.02 0.04 0.05 0.06 0.06 0.06 0.08 0.09 0.11 0.14 0.17 0.21 0.22 0.24 0.28 0.29 0.28 0.25 0.25 0.26 0.26 0.25 0.25 0.23 0.19 0.14 0.13 0.15 0.14 0.10 0.06
0.01 0.01 0.01 0.01 0.01 0.01 0.03 0.04 0.04 0.03 0.02 0.02 0.02 0.02 0.03 0.03 0.03 0.03 0.03 0.03 0.05 0.06 0.06 0.07 0.07 0.09 0.13 0.13 0.13 0.17 0.23 0.26 0.29 0.30 0.31 0.26 0.24 0.25 0.27 0.25 0.23 0.22 0.21 0.17 0.11 0.11 0.12 0.10 0.06
0.01 0.02 0.01 0.01 0.01 0.02 0.04 0.05 0.04 0.03 0.02 0.01 0.02 0.02 0.03 0.03 0.03 0.03 0.05 0.04 0.05 0.08 0.08 0.07 0.07 0.09 0.13 0.16 0.18 0.18 0.27 0.34 0.35 0.36 0.35 0.27 0.23 0.24 0.25 0.25 0.22 0.21 0.21 0.19 0.15 0.10 0.09 0.08 0.05
0.01 0.01 0.01 0.01 0.01 0.02 0.04 0.06 0.03 0.03 0.02 0.02 0.02 0.02 0.03 0.03 0.03 0.04 0.05 0.05 0.05 0.08 0.08 0.08 0.07 0.11 0.14 0.16 0.22 0.20 0.25 0.33 0.34 0.33 0.37 0.30 0.23 0.24 0.26 0.25 0.22 0.20 0.19 0.18 0.15 0.13 0.10 0.07 0.05
0.00 0.00 0.00 0.00 0.00 0.01 0.03 0.05 0.03 0.03 0.03 0.01 0.01 0.02 0.03 0.03 0.03 0.04 0.04 0.04 0.05 0.07 0.08 0.09 0.08 0.11 0.16 0.17 0.21 0.23 0.21 0.26 0.31 0.35 0.36 0.34 0.27 0.23 0.26 0.27 0.25 0.22 0.19 0.17 0.15 0.12 0.11 0.08 0.05
0.00 0.01 0.01 0.01 0.01 0.02 0.02 0.05 0.05 0.04 0.04 0.02 0.01 0.01 0.01 0.02 0.02 0.03 0.03 0.03 0.04 0.06 0.08 0.10 0.10 0.10 0.15 0.16 0.17 0.23 0.23 0.23 0.29 0.35 0.39 0.37 0.33 0.26 0.24 0.26 0.26 0.24 0.22 0.19 0.16 0.12 0.10 0.07 0.05
0.01 0.01 0.02 0.01 0.01 0.02 0.02 0.05 0.07 0.04 0.02 0.02 0.01 0.01 0.01 0.01 0.02 0.03 0.03 0.04 0.05 0.06 0.07 0.09 0.12 0.12 0.13 0.16 0.18 0.21 0.25 0.25 0.26 0.29 0.31 0.36 0.36 0.31 0.25 0.24 0.23 0.22 0.22 0.22 0.20 0.16 0.10 0.07 0.05
0.01 0.01 0.02 0.01 0.01 0.01 0.03 0.06 0.06 0.04 0.02 0.01 0.01 0.01 0.01 0.01 0.01 0.02 0.03 0.05 0.06 0.06 0.07 0.09 0.10 0.12 0.13 0.18 0.21 0.23 0.24 0.28 0.27 0.29 0.26 0.28 0.31 0.28 0.25 0.22 0.21 0.19 0.19 0.20 0.20 0.20 0.16 0.10 0.06
0.01 0.01 0.00 0.01 0.01 0.01 0.01 0.03 0.03 0.02 0.01 0.01 0.01 0.01 0.01 0.01 0.01 0.01 0.02 0.04 0.06 0.07 0.06 0.08 0.08 0.11 0.12 0.17 0.24 0.27 0.26 0.26 0.28 0.28 0.27 0.24 0.25 0.26 0.23 0.22 0.22 0.19 0.18 0.18 0.18 0.18 0.17 0.12 0.08
0.00 0.00 0.00 0.00 0.01 0.01 0.01 0.02 0.03 0.02 0.02 0.01 0.01 0.01 0.01 0.01 0.01 0.01 0.02 0.04 0.06 0.08 0.07 0.07 0.07 0.09 0.11 0.13 0.21 0.26 0.28 0.26 0.28 0.28 0.29 0.26 0.22 0.21 0.21 0.20 0.21 0.19 0.17 0.18 0.17 0.16 0.15 0.12 0.08
0.00 0.00 0.00 0.00 0.01 0.02 0.01 0.01 0.01 0.01 0.01 0.01 0.01 0.01 0.01 0.01 0.01 0.01 0.01 0.03 0.05 0.07 0.09 0.08 0.08 0.09 0.09 0.11 0.17 0.23 0.28 0.29 0.28 0.28 0.30 0.29 0.23 0.18 0.17 0.17 0.16 0.17 0.16 0.16 0.15 0.14 0.14 0.12 0.09
0.00 0.00 0.00 0.01 0.01 0.01 0.01 0.00 0.00 0.00 0.00 0.01 0.01 0.01 0.01 0.00 0.01 0.01 0.01 0.03 0.04 0.05 0.07 0.09 0.09 0.08 0.09 0.09 0.13 0.20 0.26 0.30 0.28 0.25 0.27 0.31 0.30 0.22 0.16 0.14 0.13 0.14 0.14 0.14 0.13 0.12 0.12 0.10 0.08
MSLP
1012.01 1012.34 1012.83 1013.36 1013.83 1014.10 1014.08 1013.74 1013.11 1012.27 1011.38 1010.61 1010.08 1009.87 1009.99 1010.37 1010.86 1011.32 1011.58 1011.54 1011.18 1010.53 1009.70 1008.81 1007.99 1007.34 1006.90 1006.68 1006.62 1006.67 1006.76 1006.86 1006.94 1007.03 1007.15 1007.34 1007.59 1007.90 1008.26 1008.62 1008.95 1009.23 1009.48 1009.70 1009.92 1010.18 1010.48 1010.84 1011.23
1012.27 1012.62 1013.09 1013.56 1013.94 1014.09 1013.96 1013.53 1012.82 1011.95 1011.08 1010.35 1009.89 1009.76 1009.97 1010.41 1010.97 1011.46 1011.75 1011.74 1011.40 1010.77 1009.95 1009.06 1008.24 1007.59 1007.14 1006.90 1006.83 1006.87 1006.95 1007.04 1007.11 1007.18 1007.27 1007.42 1007.62 1007.89 1008.21 1008.54 1008.86 1009.15 1009.41 1009.66 1009.91 1010.19 1010.51 1010.88 1011.28
1012.59 1012.94 1013.36 1013.77 1014.06 1014.14 1013.94 1013.48 1012.79 1011.97 1011.17 1010.52 1010.13 1010.05 1010.26 1010.68 1011.18 1011.62 1011.85 1011.79 1011.43 1010.81 1010.02 1009.18 1008.41 1007.80 1007.39 1007.16 1007.09 1007.11 1007.17 1007.21 1007.24 1007.26 1007.29 1007.36 1007.50 1007.71 1007.98 1008.29 1008.62 1008.94 1009.24 1009.54 1009.85 1010.18 1010.54 1010.94 1011.37
1012.97 1013.30 1013.67 1014.01 1014.24 1014.27 1014.08 1013.65 1013.04 1012.34 1011.65 1011.10 1010.76 1010.68 1010.82 1011.13 1011.49 1011.77 1011.87 1011.73 1011.33 1010.73 1009.99 1009.23 1008.55 1008.01 1007.65 1007.45 1007.38 1007.37 1007.37 1007.36 1007.31 1007.24 1007.19 1007.18 1007.24 1007.39 1007.62 1007.93 1008.27 1008.64 1009.01 1009.38 1009.77 1010.16 1010.59 1011.03 1011.50
1013.40 1013.69 1014.01 1014.29 1014.48 1014.50 1014.35 1014.01 1013.53 1012.97 1012.42 1011.96 1011.66 1011.52 1011.55 1011.67 1011.82 1011.90 1011.83 1011.57 1011.14 1010.56 1009.90 1009.25 1008.68 1008.23 1007.93 1007.75 1007.66 1007.61 1007.54 1007.44 1007.30 1007.15 1007.00 1006.91 1006.91 1007.01 1007.21 1007.52 1007.89 1008.32 1008.76 1009.23 1009.69 1010.17 1010.65 1011.14 1011.63
1013.81 1014.07 1014.34 1014.58 1014.73 1014.78 1014.69 1014.46 1014.13 1013.72 1013.31 1012.93 1012.63 1012.41 1012.28 1012.19 1012.10 1011.95 1011.70 1011.34 1010.87 1010.34 1009.78 1009.25 1008.80 1008.45 1008.19 1008.03 1007.90 1007.78 1007.64 1007.45 1007.23 1006.99 1006.78 1006.62 1006.57 1006.63 1006.82 1007.14 1007.54 1008.02 1008.55 1009.09 1009.64 1010.18 1010.71 1011.24 1011.74
1014.19 1014.41 1014.63 1014.82 1014.96 1015.02 1014.99 1014.87 1014.67 1014.40 1014.10 1013.78 1013.46 1013.16 1012.86 1012.56 1012.24 1011.88 1011.49 1011.05 1010.58 1010.10 1009.65 1009.24 1008.90 1008.62 1008.40 1008.22 1008.05 1007.86 1007.64 1007.38 1007.09 1006.80 1006.54 1006.36 1006.27 1006.32 1006.51 1006.83 1007.26 1007.79 1008.37 1008.98 1009.59 1010.19 1010.76 1011.30 1011.81
1014.52 1014.70 1014.87 1015.02 1015.12 1015.17 1015.17 1015.12 1015.02 1014.86 1014.63 1014.36 1014.02 1013.63 1013.19 1012.72 1012.22 1011.71 1011.21 1010.73 1010.28 1009.88 1009.52 1009.22 1008.97 1008.74 1008.53 1008.32 1008.09 1007.83 1007.54 1007.22 1006.89 1006.58 1006.32 1006.13 1006.04 1006.08 1006.26 1006.59 1007.03 1007.59 1008.21 1008.87 1009.53 1010.17 1010.77 1011.31 1011.80
1014.83 1014.98 1015.09 1015.17 1015.21 1015.22 1015.21 1015.18 1015.12 1015.01 1014.84 1014.59 1014.24 1013.79 1013.27 1012.68 1012.07 1011.47 1010.91 1010.43 1010.02 1009.70 1009.43 1009.20 1009.00 1008.79 1008.55 1008.29 1007.99 1007.67 1007.33 1006.98 1006.65 1006.35 1006.11 1005.93 1005.85 1005.89 1006.06 1006.37 1006.82 1007.38 1008.02 1008.72 1009.43 1010.10 1010.72 1011.27 1011.75
1015.19 1015.30 1015.35 1015.34 1015.28 1015.20 1015.12 1015.04 1014.97 1014.88 1014.73 1014.49 1014.15 1013.69 1013.13 1012.50 1011.85 1011.23 1010.67 1010.21 1009.86 1009.59 1009.38 1009.19 1009.00 1008.76 1008.48 1008.15 1007.79 1007.41 1007.03 1006.68 1006.37 1006.10 1005.88 1005.73 1005.66 1005.69 1005.84 1006.12 1006.55 1007.10 1007.77 1008.50 1009.25 1009.98 1010.64 1011.21 1011.68
1015.68 1015.76 1015.73 1015.60 1015.40 1015.18 1014.97 1014.80 1014.66 1014.54 1014.39 1014.18 1013.86 1013.43 1012.89 1012.29 1011.66 1011.06 1010.54 1010.12 1009.81 1009.57 1009.38 1009.19 1008.97 1008.68 1008.33 1007.93 1007.50 1007.07 1006.68 1006.33 1006.04 1005.81 1005.62 1005.49 1005.41 1005.42 1005.53 1005.77 1006.17 1006.72 1007.40 1008.17 1008.99 1009.79 1010.52 1011.14 1011.64
1016.37 1016.41 1016.28 1016.00 1015.63 1015.23 1014.85 1014.53 1014.29 1014.11 1013.95 1013.76 1013.49 1013.12 1012.66 1012.13 1011.56 1011.02 1010.55 1010.17 1009.87 1009.64 1009.43 1009.20 1008.91 1008.55 1008.12 1007.64 1007.15 1006.69 1006.28 1005.94 1005.67 1005.46 1005.30 1005.16 1005.07 1005.03 1005.09 1005.28 1005.64 1006.18 1006.90 1007.74 1008.65 1009.56 1010.40 1011.10 1011.66
1017.27 1017.25 1017.01 1016.58 1016.01 1015.40 1014.82 1014.33 1013.96 1013.70 1013.51 1013.34 1013.14 1012.86 1012.50 1012.06 1011.59 1011.11 1010.68 1010.31 1010.00 1009.74 1009.47 1009.17 1008.80 1008.35 1007.84 1007.30 1006.76 1006.27 1005.85 1005.52 1005.27 1005.07 1004.89 1004.74 1004.60 1004.51 1004.50 1004.65 1004.98 1005.52 1006.28 1007.21 1008.24 1009.29 1010.27 1011.10 1011.76
1018.32 1018.25 1017.89 1017.29 1016.53 1015.70 1014.91 1014.24 1013.72 1013.37 1013.15 1013.00 1012.86 1012.67 1012.42 1012.08 1011.68 1011.26 1010.85 1010.47 1010.12 1009.78 1009.43 1009.04 1008.58 1008.06 1007.48 1006.89 1006.32 1005.81 1005.39 1005.06 1004.81 1004.60 1004.41 1004.21 1004.02 1003.87 1003.80 1003.90 1004.21 1004.77 1005.58 1006.61 1007.77 1008.98 1010.12 1011.12 1011.90
1019.40 1019.26 1018.78 1018.03 1017.09 1016.07 1015.09 1014.24 1013.58 1013.14 1012.87 1012.73 1012.63 1012.52 1012.35 1012.09 1011.75 1011.36 1010.94 1010.51 1010.09 1009.66 1009.22 1008.73 1008.20 1007.61 1006.99 1006.37 1005.79 1005.28 1004.87 1004.54 1004.28 1004.05 1003.83 1003.59 1003.36 1003.15 1003.04 1003.10 1003.41 1003.99 1004.86 1005.98 1007.27 1008.63 1009.94 1011.09 1012.03
1020.34 1020.14 1019.58 1018.71 1017.62 1016.45 1015.30 1014.30 1013.51 1012.97 1012.64 1012.48 1012.40 1012.33 1012.20 1011.99 1011.68 1011.29 1010.83 1010.34 1009.83 1009.30 1008.75 1008.18 1007.57 1006.94 1006.30 1005.68 1005.12 1004.63 1004.23 1003.91 1003.65 1003.41 1003.17 1002.91 1002.64 1002.41 1002.27 1002.32 1002.63 1003.24 1004.15 1005.35 1006.74 1008.22 1009.67 1010.97 1012.05
1021.03 1020.78 1020.16 1019.22 1018.05 1016.77 1015.51 1014.38 1013.47 1012.83 1012.42 1012.20 1012.10 1012.02 1011.91 1011.70 1011.39 1010.96 1010.45 1009.88 1009.27 1008.64 1007.99 1007.34 1006.68 1006.02 1005.38 1004.77 1004.24 1003.78 1003.41 1003.11 1002.87 1002.64 1002.40 1002.15 1001.89 1001.67 1001.54 1001.61 1001.93 1002.55 1003.50 1004.73 1006.18 1007.73 1009.28 1010.69 1011.89
1021.38 1021.10 1020.47 1019.53 1018.34 1017.02 1015.70 1014.49 1013.47 1012.71 1012.20 1011.89 1011.71 1011.58 1011.43 1011.19 1010.84 1010.36 1009.78 1009.12 1008.41 1007.68 1006.95 1006.22 1005.51 1004.83 1004.19 1003.61 1003.11 1002.69 1002.37 1002.11 1001.91 1001.72 1001.53 1001.32 1001.11 1000.94 1000.86 1000.97 1001.31 1001.95 1002.90 1004.13 1005.58 1007.16 1008.74 1010.23 1011.51
1021.40 1021.14 1020.56 1019.68 1018.54 1017.26 1015.92 1014.65 1013.54 1012.65 1012.00 1011.55 1011.25 1011.02 1010.78 1010.48 1010.07 1009.53 1008.88 1008.13 1007.33 1006.50 1005.67 1004.87 1004.10 1003.39 1002.75 1002.19 1001.72 1001.35 1001.08 1000.88 1000.74 1000.63 1000.52 1000.40 1000.29 1000.21 1000.22 1000.39 1000.77 1001.42 1002.35 1003.54 1004.95 1006.50 1008.07 1009.57 1010.91
1021.19 1021.00 1020.53 1019.78 1018.76 1017.56 1016.25 1014.95 1013.74 1012.71 1011.88 1011.25 1010.78 1010.41 1010.06 1009.67 1009.18 1008.57 1007.85 1007.03 1006.13 1005.20 1004.27 1003.38 1002.54 1001.78 1001.11 1000.55 1000.10 999.78 999.56 999.43 999.38 999.37 999.37 999.39 999.41 999.46 999.58 999.83 1000.26 1000.91 1001.81 1002.96 1004.29 1005.77 1007.29 1008.77 1010.14
1020.93 1020.85 1020.54 1019.97 1019.12 1018.04 1016.78 1015.45 1014.14 1012.94 1011.91 1011.06 1010.39 1009.83 1009.34 1008.84 1008.28 1007.61 1006.81 1005.91 1004.93 1003.89 1002.85 1001.84 1000.90 1000.06 999.34 998.76 998.32 998.03 997.87 997.83 997.88 997.98 998.13 998.28 998.46 998.65 998.90 999.25 999.73 1000.40 1001.27 1002.35 1003.61 1005.00 1006.46 1007.90 1009.27
1020.79 1020.86 1020.76 1020.39 1019.73 1018.78 1017.57 1016.20 1014.77 1013.38 1012.12 1011.02 1010.12 1009.36 1008.71 1008.10 1007.45 1006.71 1005.86 1004.88 1003.80 1002.65 1001.48 1000.34 999.28 998.33 997.54 996.92 996.48 996.22 996.11 996.16 996.31 996.54 996.82 997.13 997.45 997.79 998.16 998.60 999.15 999.85 1000.70 1001.74 1002.93 1004.25 1005.64 1007.05 1008.41
1020.92 1021.16 1021.25 1021.10 1020.62 1019.78 1018.61 1017.18 1015.60 1014.00 1012.48 1011.13 1009.97 1009.01 1008.20 1007.46 1006.73 1005.92 1005.00 1003.95 1002.77 1001.50 1000.19 998.90 997.71 996.65 995.78 995.11 994.67 994.43 994.40 994.52 994.79 995.14 995.55 995.98 996.43 996.89 997.37 997.90 998.51 999.24 1000.10 1001.11 1002.27 1003.55 1004.91 1006.29 1007.65
1021.36 1021.76 1022.03 1022.06 1021.71 1020.95 1019.78 1018.27 1016.53 1014.70 1012.92 1011.30 1009.90 1008.73 1007.75 1006.89 1006.07 1005.20 1004.21 1003.08 1001.79 1000.40 998.95 997.53 996.20 995.04 994.10 993.40 992.96 992.78 992.81 993.04 993.40 993.86 994.37 994.91 995.45 996.00 996.56 997.16 997.82 998.59 999.48 1000.51 1001.67 1002.94 1004.29 1005.68 1007.04
1022.08 1022.60 1023.01 1023.15 1022.89 1022.16 1020.94 1019.32 1017.40 1015.34 1013.32 1011.45 1009.81 1008.44 1007.31 1006.33 1005.42 1004.47 1003.41 1002.19 1000.80 999.29 997.71 996.16 994.72 993.48 992.50 991.80 991.41 991.29 991.42 991.75 992.22 992.77 993.36 993.97 994.57 995.16 995.77 996.41 997.12 997.93 998.87 999.94 1001.13 1002.44 1003.81 1005.21 1006.58
1022.95 1023.54 1024.02 1024.21 1023.97 1023.20 1021.91 1020.15 1018.05 1015.79 1013.54 1011.45 1009.62 1008.07 1006.79 1005.70 1004.69 1003.66 1002.51 1001.19 999.70 998.07 996.39 994.74 993.23 991.95 990.97 990.32 990.00 989.99 990.24 990.68 991.26 991.89 992.55 993.19 993.81 994.42 995.04 995.70 996.45 997.30 998.29 999.42 1000.68 1002.04 1003.46 1004.88 1006.27
1023.81 1024.41 1024.89 1025.06 1024.76 1023.92 1022.52 1020.62 1018.38 1015.94 1013.52 1011.26 1009.26 1007.57 1006.16 1004.95 1003.85 1002.71 1001.47 1000.05 998.45 996.73 994.95 993.23 991.68 990.41 989.48 988.91 988.71 988.84 989.23 989.80 990.48 991.20 991.90 992.56 993.19 993.79 994.40 995.07 995.84 996.74 997.78 998.98 1000.31 1001.73 1003.20 1004.66 1006.05
1024.49 1025.05 1025.47 1025.55 1025.15 1024.21 1022.69 1020.68 1018.32 1015.78 1013.24 1010.86 1008.76 1006.96 1005.44 1004.13 1002.91 1001.67 1000.31 998.78 997.08 995.26 993.41 991.65 990.10 988.86 988.01 987.56 987.50 987.78 988.33 989.04 989.83 990.63 991.37 992.06 992.68 993.27 993.87 994.55 995.33 996.27 997.37 998.64 1000.03 1001.51 1003.02 1004.50 1005.89
1024.90 1025.36 1025.66 1025.61 1025.10 1024.03 1022.42 1020.35 1017.93 1015.34 1012.76 1010.35 1008.19 1006.32 1004.72 1003.31 1001.97 1000.61 999.12 997.47 995.66 993.75 991.84 990.06 988.52 987.34 986.58 986.25 986.34 986.77 987.47 988.31 989.22 990.10 990.90 991.61 992.25 992.84 993.46 994.14 994.96 995.94 997.09 998.41 999.86 1001.38 1002.92 1004.41 1005.78
1025.00 1025.34 1025.49 1025.30 1024.65 1023.49 1021.83 1019.73 1017.32 1014.77 1012.23 1009.84 1007.68 1005.79 1004.12 1002.62 1001.17 999.67 998.04 996.26 994.34 992.34 990.38 988.57 987.05 985.92 985.23 985.01 985.22 985.78 986.60 987.57 988.58 989.54 990.41 991.18 991.86 992.49 993.14 993.86 994.72 995.74 996.95 998.31 999.80 1001.35 1002.90 1004.37 1005.72
Thickness
5713 5714 5713 5706 5691 5680 5684 5696 5709 5718 5726 5738 5742 5741 5738 5738 5737 5735 5757 5767 5771 5772 5773 5773 5773 5773 5773 5773 5773 5772 5771 5771 5770 5769 5768 5767 5766 5766 5765 5763 5762 5760 5758 5757 5755 5754 5751 5750 5748
5707 5708 5702 5691 5677 5672 5683 5698 5707 5716 5726 5734 5736 5737 5736 5737 5746 5748 5752 5759 5763 5765 5765 5766 5766 5767 5767 5768 5768 5768 5767 5766 5765 5765 5764 5763 5762 5761 5760 5759 5758 5756 5754 5753 5751 5749 5747 5746 5744
5701 5700 5688 5678 5673 5674 5686 5702 5706 5714 5720 5722 5722 5730 5730 5731 5737 5739 5746 5753 5755 5757 5758 5759 5760 5760 5761 5762 5762 5763 5763 5762 5761 5760 5759 5759 5758 5757 5756 5755 5753 5752 5750 5748 5747 5745 5743 5742 5740
5690 5683 5676 5669 5674 5681 5689 5696 5701 5703 5708 5710 5710 5712 5720 5727 5729 5732 5739 5744 5746 5748 5750 5752 5753 5754 5755 5755 5756 5756 5757 5757 5756 5755 5755 5754 5754 5753 5751 5750 5749 5747 5745 5744 5742 5740 5739 5737 5736
5678 5668 5662 5661 5669 5679 5685 5689 5691 5688 5690 5694 5695 5696 5704 5718 5724 5727 5730 5733 5735 5738 5741 5743 5745 5746 5748 5749 5750 5750 5751 5751 5751 5751 5750 5749 5749 5748 5747 5745 5744 5743 5741 5739 5737 5736 5734 5733 5732
5660 5655 5648 5651 5662 5672 5674 5676 5677 5675 5677 5681 5682 5685 5696 5708 5711 5715 5719 5721 5725 5729 5732 5734 5736 5738 5740 5742 5743 5744 5744 5745 5745 5746 5745 5744 5744 5743 5742 5740 5739 5738 5736 5734 5733 5731 5730 5729 5728
5647 5642 5641 5647 5652 5658 5663 5665 5662 5661 5664 5668 5672 5672 5684 5694 5699 5703 5707 5710 5714 5718 5721 5724 5727 5729 5731 5733 5735 5736 5737 5738 5739 5739 5739 5739 5738 5737 5737 5735 5734 5733 5731 5729 5728 5726 5725 5724 5723
5639 5632 5634 5636 5641 5646 5648 5650 5651 5649 5653 5659 5661 5658 5665 5678 5686 5691 5695 5698 5701 5705 5709 5712 5716 5719 5722 5723 5726 5728 5729 5730 5731 5732 5733 5733 5732 5732 5731 5730 5729 5728 5726 5724 5723 5721 5720 5719 5718
5633 5616 5617 5626 5628 5631 5634 5633 5636 5639 5641 5645 5648 5649 5655 5664 5671 5675 5679 5683 5686 5691 5695 5699 5703 5707 5711 5714 5717 5719 5720 5722 5723 5724 5725 5725 5725 5725 5725 5724 5724 5723 5721 5719 5718 5717 5715 5714 5713
5615 5605 5613 5621 5618 5617 5619 5618 5619 5622 5624 5628 5633 5639 5644 5648 5651 5654 5660 5665 5671 5675 5681 5686 5691 5695 5699 5703 5706 5708 5711 5713 5714 5716 5717 5717 5718 5719 5719 5718 5718 5717 5716 5714 5713 5711 5710 5708 5707
5609 5602 5607 5609 5609 5607 5607 5607 5607 5604 5607 5613 5617 5624 5630 5633 5634 5638 5643 5650 5656 5662 5667 5672 5677 5682 5686 5690 5693 5697 5700 5703 5705 5707 5709 5710 5710 5711 5711 5711 5711 5711 5709 5708 5707 5706 5704 5703 5701
5598 5598 5598 5598 5597 5595 5593 5594 5594 5593 5597 5602 5604 5608 5612 5616 5620 5623 5628 5634 5640 5646 5652 5659 5663 5667 5672 5677 5681 5685 5689 5692 5695 5698 5700 5702 5703 5704 5705 5705 5706 5705 5704 5703 5702 5700 5698 5697 5696
5587 5587 5589 5588 5587 5585 5585 5583 5581 5586 5588 5589 5591 5594 5597 5600 5605 5609 5612 5617 5623 5629 5636 5642 5647 5652 5657 5662 5667 5673 5677 5681 5685 5688 5691 5694 5695 5697 5698 5698 5699 5700 5699 5698 5696 5694 5693 5691 5690
5580 5578 5576 5577 5576 5576 5575 5575 5568 5575 5576 5575 5576 5579 5582 5585 5589 5593 5597 5601 5606 5613 5620 5626 5631 5637 5642 5647 5653 5659 5664 5669 5673 5678 5682 5685 5688 5690 5691 5692 5693 5694 5693 5692 5691 5690 5688 5686 5684
5571 5565 5564 5568 5567 5566 5563 5561 5560 5565 5562 5560 5561 5564 5569 5572 5574 5578 5582 5585 5590 5597 5604 5610 5615 5621 5626 5632 5638 5645 5651 5657 5662 5667 5672 5676 5679 5681 5684 5685 5686 5688 5687 5686 5685 5683 5682 5680 5678
5557 5548 5545 5556 5556 5555 5545 5545 5556 5553 5548 5548 5550 5552 5555 5560 5562 5565 5568 5571 5575 5581 5588 5595 5600 5605 5610 5616 5623 5630 5637 5644 5650 5656 5662 5666 5670 5674 5676 5677 5679 5682 5681 5680 5679 5678 5676 5674 5672
5538 5528 5529 5539 5546 5543 5533 5534 5547 5543 5537 5537 5537 5538 5542 5546 5550 5553 5556 5558 5562 5567 5572 5579 5585 5589 5594 5601 5608 5616 5623 5630 5638 5644 5651 5656 5661 5665 5668 5671 5672 5673 5675 5674 5674 5672 5671 5668 5666
5528 5521 5521 5524 5533 5531 5523 5528 5538 5537 5531 5525 5525 5528 5531 5535 5539 5542 5545 5547 5550 5553 5558 5564 5569 5575 5580 5586 5593 5601 5609 5618 5626 5633 5641 5646 5651 5656 5660 5663 5665 5666 5668 5668 5668 5666 5665 5664 5661
5528 5520 5513 5522 5528 5522 5520 5525 5530 5531 5524 5520 5519 5521 5522 5526 5530 5533 5534 5535 5537 5540 5544 5550 5555 5561 5567 5573 5580 5588 5597 5606 5615 5623 5631 5637 5642 5647 5651 5655 5658 5661 5663 5664 5663 5661 5659 5657 5654
5523 5512 5509 5519 5524 5519 5516 5520 5524 5524 5520 5517 5513 5512 5513 5517 5521 5523 5523 5522 5524 5528 5532 5537 5544 5551 5557 5563 5571 5580 5587 5596 5606 5614 5621 5628 5633 5639 5643 5647 5652 5656 5657 5657 5658 5658 5654 5651 5652
5519 5509 5506 5508 5512 5508 5501 5506 5514 5516 5515 5513 5508 5505 5505 5508 5510 5512 5513 5514 5516 5518 5522 5528 5535 5542 5548 5555 5561 5569 5574 5584 5592 5602 5611 5620 5625 5631 5636 5641 5646 5649 5652 5653 5655 5655 5654 5649 5646
5509 5515 5510 5504 5487 5478 5484 5478 5501 5503 5503 5504 5501 5497 5497 5499 5500 5503 5504 5506 5508 5511 5515 5520 5526 5533 5540 5547 5552 5559 5565 5574 5586 5595 5603 5611 5618 5623 5629 5634 5639 5643 5647 5649 5650 5651 5652 5649 5644
5507 5511 5503 5495 5480 5467 5470 5460 5485 5489 5491 5494 5493 5492 5491 5491 5492 5494 5496 5498 5501 5504 5508 5514 5520 5527 5534 5539 5545 5551 5558 5567 5577 5585 5594 5602 5609 5615 5622 5628 5633 5638 5641 5644 5645 5646 5647 5646 5644
5504 5494 5490 5475 5462 5456 5467 5457 5469 5473 5479 5483 5485 5484 5484 5483 5484 5486 5488 5491 5494 5497 5502 5509 5516 5521 5526 5532 5539 5545 5552 5559 5567 5577 5585 5593 5601 5608 5615 5621 5627 5633 5637 5640 5641 5642 5642 5642 5640
5487 5464 5453 5444 5430 5442 5466 5460 5468 5476 5477 5476 5476 5475 5476 5476 5476 5477 5480 5483 5487 5491 5497 5503 5509 5514 5520 5526 5533 5540 5548 5554 5561 5570 5579 5588 5595 5602 5610 5616 5622 5627 5631 5634 5636 5636 5637 5637 5636
5475 5458 5437 5425 5422 5444 5457 5457 5472 5476 5475 5473 5472 5470 5469 5469 5469 5471 5473 5476 5480 5484 5489 5494 5500 5507 5513 5520 5528 5536 5543 5549 5556 5565 5575 5584 5591 5599 5605 5611 5617 5620 5624 5627 5629 5631 5631 5631 5631
5468 5450 5443 5421 5411 5415 5438 5448 5464 5474 5470 5467 5465 5463 5461 5462 5464 5465 5467 5469 5472 5476 5481 5487 5494 5502 5508 5515 5522 5530 5538 5545 5552 5561 5570 5579 5587 5594 5600 5606 5611 5615 5618 5621 5623 5624 5625 5625 5624
5467 5451 5424 5412 5400 5404 5425 5432 5445 5457 5457 5457 5456 5454 5454 5456 5459 5460 5462 5464 5468 5471 5476 5482 5488 5494 5502 5510 5516 5524 5533 5541 5548 5557 5565 5573 5582 5589 5595 5600 5606 5610 5612 5615 5617 5618 5619 5619 5618
5455 5443 5428 5408 5399 5395 5402 5441 5460 5451 5452 5448 5447 5447 5448 5449 5451 5453 5456 5460 5463 5466 5471 5476 5482 5488 5495 5503 5511 5518 5527 5536 5543 5553 5561 5568 5577 5584 5591 5596 5602 5606 5608 5610 5611 5613 5614 5614 5613
5451 5438 5421 5406 5397 5391 5393 5436 5463 5453 5447 5443 5441 5442 5444 5445 5446 5448 5451 5454 5457 5461 5465 5470 5476 5482 5489 5497 5505 5513 5522 5529 5539 5548 5557 5565 5572 5579 5587 5593 5598 5601 5603 5605 5607 5609 5610 5610 5609